Location: Clanezzo
(45.7500°N, 9.6000°E)
Time: 04:00:21
(UTC+00:00)

Meteor 1-12 Rocket - Pass Details

Date: 12 May 2021
Orbit: 854 x 927 km, 81.2° (Epoch: 18 June)

Event Time Altitude Azimuth Distance (km) Brightness Sun altitude
Rises 23:03:29 0° 349° (N) 3,537 8.8 -25.8°
Reaches altitude 10° 23:05:59 10° 350° (N) 2,582 7.7 -25.8°
Maximum altitude 23:11:53 83° 79° (ENE) 897 4.2 -25.9°
Enters shadow 23:12:38 68° 151° (SSE) 948 4.1 -25.9°
